Overview Statistics Trail Chart Weather Telemetry Raw packets
 

This is the latest recevied weather packets stored in our database for station/object ED1ZAI-13. If no packets are shown the sender has not sent any weather packets the latest 10 day(s).

<< 13 14 15 16 17 18 19 >>
Time Temp. Humidity Pressure Rain* Wind** Luminosity Snow
1788405464 17.78° C 53% 1017.7 hPa - - - -
1788404863 18.33° C 51% 1018.1 hPa - - - -
1788404263 18.89° C 53% 1016.6 hPa - - - -
1788403663 18.89° C 52% 1017.5 hPa - - - -
1788403065 19.44° C 51% 1017.8 hPa - - - -
1788402465 19.44° C 53% 1016.5 hPa - - - -
1788401864 19.44° C 55% 1014.9 hPa - - - -
1788401264 18.33° C 56% 1014.5 hPa - - - -
1788400664 18.33° C 55% 1015.6 hPa - - - -
1788400064 18.33° C 53% 1017 hPa - - - -
1788399463 18.89° C 52% 1017.3 hPa - - - -
1788398863 18.89° C 53% 1016.8 hPa - - - -
1788398263 18.89° C 53% 1016.8 hPa - - - -
1788397665 19.44° C 53% 1016.7 hPa - - - -
1788397064 19.44° C 54% 1015.3 hPa - - - -
1788396464 19.44° C 54% 1015.4 hPa - - - -
1788395864 19.44° C 55% 1014.7 hPa - - - -
1788395264 20° C 55% 1014.7 hPa - - - -
1788394663 20° C 56% 1014.5 hPa - - - -
1788394063 20.56° C 55% 1015.1 hPa - - - -
1788393463 20.56° C 55% 1015.1 hPa - - - -
1788392863 20.56° C 54% 1016.2 hPa - - - -
1788392262 21.11° C 53% 1016.8 hPa - - - -
1788391662 21.11° C 52% 1017.2 hPa - - - -
1788391183 21.67° C 52% 1017.6 hPa - - - -

* Rain since midnight (hover to see other rain measurements)
** Current wind speed in m/s (hover to see current wind gust speed)